IT9IRS-4 Weather Reports


time (UTC)temp
F
wind
direction
speed
knots
gust
knots
rain 1hr
in
rain 24hr
in
rain mn
in
humidity
%
barometer
mb
20260906113503 86 43 11.3 13.9 0.00 0.00 0.00 52 1021.5
20260906113217 86 49 12.2 13.9 0.00 0.00 0.00 55 1021.4
20260906112504 86 37 7.8 13.9 0.00 0.00 0.00 52 1021.5
20260906112004 86 19 7.0 11.3 0.00 0.00 0.00 52 1021.3
20260906111721 86 39 7.0 11.3 0.00 0.00 0.00 53 1021.4
20260906111003 85 64 7.0 8.7 0.00 0.00 0.00 52 1021.4
20260906110503 86 55 7.8 10.4 0.00 0.00 0.00 52 1021.4
20260906110004 86 56 8.7 13.0 0.00 0.00 0.00 52 1021.3
20260906105713 86 62 9.6 13.0 0.00 0.00 0.00 53 1021.3
20260906105003 85 42 10.4 11.3 0.00 0.00 0.00 56 1021.5
20260906104714 85 31 10.4 11.3 0.00 0.00 0.00 57 1021.8
20260906104217 85 25 7.8 11.3 0.00 0.00 0.00 59 1021.6
20260906103504 85 46 8.7 11.3 0.00 0.00 0.00 59 1021.5
20260906103005 85 94 9.6 13.0 0.00 0.00 0.00 60 1021.7
20260906102504 85 100 7.8 13.0 0.00 0.00 0.00 59 1021.6
20260906102214 85 95 7.8 9.6 0.00 0.00 0.00 58 1021.7
20260906101716 85 71 7.8 9.6 0.00 0.00 0.00 60 1021.8
20260906101004 85 45 6.1 7.8 0.00 0.00 0.00 60 1021.7
20260906100504 85 58 5.2 7.8 0.00 0.00 0.00 59 1021.8
20260906100215 85 54 5.2 7.8 0.00 0.00 0.00 61 1021.9
20260906095504 85 35 6.1 9.6 0.00 0.00 0.00 60 1022.0
20260906095003 85 74 6.1 9.6 0.00 0.00 0.00 60 1022.1
20260906094504 85 80 6.1 7.8 0.00 0.00 0.00 61 1021.8
20260906094003 85 37 5.2 7.0 0.00 0.00 0.00 61 1021.9
20260906093504 85 42 3.5 5.2 0.00 0.00 0.00 61 1022.0
20260906093003 84 53 4.3 6.1 0.00 0.00 0.00 61 1022.0
20260906092503 84 56 6.1 7.0 0.00 0.00 0.00 63 1021.9
20260906092003 84 78 7.0 7.0 0.00 0.00 0.00 63 1022.3
20260906091504 84 72 7.0 7.8 0.00 0.00 0.00 63 1022.2
20260906091003 84 49 7.0 7.8 0.00 0.00 0.00 63 1022.0
20260906090504 84 59 7.0 7.8 0.00 0.00 0.00 63 1022.1
20260906090004 84 68 7.0 9.6 0.00 0.00 0.00 63 1022.0
20260906085503 84 82 7.0 9.6 0.00 0.00 0.00 65 1022.0
20260906085217 84 93 6.1 9.6 0.00 0.00 0.00 64 1022.3
20260906084504 84 50 6.1 7.0 0.00 0.00 0.00 64 1021.9
20260906084004 84 69 6.1 7.0 0.00 0.00 0.00 64 1022.1
20260906083504 84 122 6.1 7.0 0.00 0.00 0.00 64 1022.0
20260906083003 84 153 6.1 7.0 0.00 0.00 0.00 64 1022.2
20260906082504 83 124 5.2 7.0 0.00 0.00 0.00 65 1021.9
20260906082003 83 83 5.2 7.0 0.00 0.00 0.00 65 1022.1
20260906081505 83 55 5.2 8.7 0.00 0.00 0.00 64 1022.1
20260906081003 83 43 4.3 8.7 0.00 0.00 0.00 65 1021.9
20260906080503 84 64 3.5 4.3 0.00 0.00 0.00 64 1021.8
20260906080004 84 103 4.3 6.1 0.00 0.00 0.00 64 1021.9
20260906075504 83 72 4.3 6.1 0.00 0.00 0.00 64 1021.7
20260906075212 83 74 4.3 6.1 0.00 0.00 0.00 64 1021.6
20260906074506 83 43 4.3 6.1 0.00 0.00 0.00 65 1021.8
20260906074004 83 66 5.2 7.8 0.00 0.00 0.00 64 1021.8
20260906073503 83 60 4.3 7.8 0.00 0.00 0.00 64 1021.6
20260906073214 83 29 3.5 5.2 0.00 0.00 0.00 62 1021.8
20260906072503 83 77 2.6 4.3 0.00 0.00 0.00 61 1021.7
20260906072003 83 62 3.5 4.3 0.00 0.00 0.00 61 1021.6
20260906071504 83 59 3.5 5.2 0.00 0.00 0.00 63 1021.4
20260906071003 83 36 3.5 5.2 0.00 0.00 0.00 63 1021.7
20260906070503 83 352 3.5 6.1 0.00 0.00 0.00 62 1021.7
20260906070004 82 39 3.5 6.1 0.00 0.00 0.00 63 1021.6
20260906065715 82 69 4.3 6.1 0.00 0.00 0.00 63 1021.5
20260906065218 82 98 4.3 6.1 0.00 0.00 0.00 63 1021.5
20260906064504 82 103 3.5 4.3 0.00 0.00 0.00 63 1021.5
20260906064003 82 114 3.5 5.2 0.00 0.00 0.00 63 1021.5
20260906063717 82 102 3.5 5.2 0.00 0.00 0.00 64 1021.4
20260906063003 82 342 1.7 4.3 0.00 0.00 0.00 64 1021.2
20260906062504 81 297 2.6 3.5 0.00 0.00 0.00 63 1021.3
20260906062005 81 276 2.6 3.5 0.00 0.00 0.00 63 1021.4
20260906061504 81 266 2.6 3.5 0.00 0.00 0.00 63 1021.1
20260906061003 80 221 3.5 4.3 0.00 0.00 0.00 64 1021.4
20260906060504 80 196 3.5 4.3 0.00 0.00 0.00 65 1021.2
20260906060003 80 203 3.5 4.3 0.00 0.00 0.00 65 1021.1
20260906055503 80 235 2.6 4.3 0.00 0.00 0.00 65 1021.3
20260906055004 80 250 2.6 4.3 0.00 0.00 0.00 70 1021.1
20260906054503 79 212 3.5 3.5 0.00 0.00 0.00 70 1021.3
20260906054004 79 200 3.5 3.5 0.00 0.00 0.00 71 1021.1
20260906053504 79 229 2.6 3.5 0.00 0.00 0.00 71 1021.2
20260906053003 79 278 1.7 3.5 0.00 0.00 0.00 71 1021.0
20260906052504 79 343 0.9 2.6 0.00 0.00 0.00 71 1021.1
20260906052003 78 32 0.9 1.7 0.00 0.00 0.00 71 1020.9
20260906051503 78 335 0.9 2.6 0.00 0.00 0.00 71 1021.1
20260906051004 77 279 1.7 2.6 0.00 0.00 0.00 71 1021.1
20260906050503 77 243 2.6 3.5 0.00 0.00 0.00 71 1021.0
20260906050003 77 230 1.7 3.5 0.00 0.00 0.00 70 1021.1
20260906045503 77 288 1.7 3.5 0.00 0.00 0.00 70 1021.1
20260906045004 77 257 2.6 3.5 0.00 0.00 0.00 71 1021.3
20260906044718 77 251 1.7 3.5 0.00 0.00 0.00 71 1020.9
20260906044216 77 230 1.7 3.5 0.00 0.00 0.00 71 1021.0
20260906043504 77 225 2.6 2.6 0.00 0.00 0.00 71 1020.9
20260906043216 77 225 2.6 2.6 0.00 0.00 0.00 71 1020.8
20260906042503 77 225 1.7 2.6 0.00 0.00 0.00 71 1021.1
20260906042004 77 226 2.6 2.6 0.00 0.00 0.00 71 1020.8
20260906041503 77 250 2.6 3.5 0.00 0.00 0.00 71 1020.8
20260906041003 77 271 2.6 3.5 0.00 0.00 0.00 70 1020.8
20260906040716 77 271 2.6 2.6 0.00 0.00 0.00 70 1021.0
20260906040004 77 251 2.6 4.3 0.00 0.00 0.00 70 1020.8
20260906035503 77 257 2.6 3.5 0.00 0.00 0.00 69 1020.8
20260906035215 77 257 2.6 2.6 0.00 0.00 0.00 68 1021.0
20260906034503 77 284 2.6 4.3 0.00 0.00 0.00 68 1020.7
20260906034003 77 265 3.5 4.3 0.00 0.00 0.00 67 1021.0
20260906033503 77 239 2.6 4.3 0.00 0.00 0.00 66 1020.6
20260906033003 77 243 3.5 4.3 0.00 0.00 0.00 65 1020.8
20260906032503 77 247 3.5 4.3 0.00 0.00 0.00 65 1020.8
20260906032004 77 251 3.5 4.3 0.00 0.00 0.00 65 1020.8
20260906031508 77 251 3.5 4.3 0.00 0.00 0.00 65 1020.7
20260906031214 77 247 3.5 4.3 0.00 0.00 0.00 65 1020.8
20260906030503 77 238 3.5 4.3 0.00 0.00 0.00 66 1020.7
20260906030004 77 229 3.5 4.3 0.00 0.00 0.00 67 1020.5
20260906025504 78 242 3.5 3.5 0.00 0.00 0.00 67 1020.5
20260906025003 78 237 2.6 3.5 0.00 0.00 0.00 67 1020.8
20260906024503 78 225 1.7 3.5 0.00 0.00 0.00 66 1020.7
20260906024004 78 275 1.7 2.6 0.00 0.00 0.00 66 1020.6
20260906023504 78 274 1.7 2.6 0.00 0.00 0.00 66 1020.6
20260906022504 78 278 1.7 2.6 0.00 0.00 0.00 64 1021.0
20260906022003 78 274 1.7 3.5 0.00 0.00 0.00 65 1021.1
20260906021504 78 230 2.6 3.5 0.00 0.00 0.00 64 1020.8
20260906021004 78 242 2.6 3.5 0.00 0.00 0.00 64 1020.7
20260906020717 78 262 2.6 5.2 0.00 0.00 0.00 65 1020.5
20260906020003 78 255 1.7 5.2 0.00 0.00 0.00 68 1020.8
20260906015503 78 315 0.0 0.9 0.00 0.00 0.00 70 1020.7
20260906015216 78 292 0.0 0.9 0.00 0.00 0.00 70 1020.9
20260906014503 78 8 0.9 2.6 0.00 0.00 0.00 70 1020.9
20260906014003 78 357 1.7 2.6 0.00 0.00 0.00 70 1020.5
20260906013503 78 302 1.7 2.6 0.00 0.00 0.00 70 1020.8
20260906013003 78 258 1.7 3.5 0.00 0.00 0.00 71 1020.8
20260906012506 78 216 2.6 3.5 0.00 0.00 0.00 71 1020.9
20260906012219 78 225 3.5 3.5 0.00 0.00 0.00 71 1020.8
20260906011503 79 303 1.7 3.5 0.00 0.00 0.00 70 1020.8
20260906011003 79 281 1.7 2.6 0.00 0.00 0.00 70 1020.9
20260906010504 79 274 2.6 2.6 0.00 0.00 0.00 70 1020.9
20260906010004 79 270 1.7 2.6 0.00 0.00 0.00 69 1021.0
20260906005503 79 294 1.7 2.6 0.00 0.00 0.00 67 1021.0
20260906005217 78 309 1.7 2.6 0.00 0.00 0.00 67 1021.0
20260906004504 78 315 0.9 0.9 0.00 0.00 0.00 66 1020.9
20260906004213 78 313 0.9 1.7 0.00 0.00 0.00 66 1021.1
20260906003503 78 264 1.7 3.5 0.00 0.00 0.00 66 1021.2
20260906003003 78 211 3.5 4.3 0.00 0.00 0.00 66 1021.1
20260906002503 78 209 3.5 4.3 0.00 0.00 0.00 66 1021.1
20260906002004 78 256 1.7 3.5 0.00 0.00 0.00 66 1021.2
20260906001503 78 261 1.7 2.6 0.00 0.00 0.00 66 1021.0
20260906001003 78 264 1.7 2.6 0.00 0.00 0.00 66 1021.0
20260906000503 78 254 2.6 3.5 0.00 0.00 0.00 68 1021.0
20260906000005 78 239 3.5 3.5 0.00 0.00 0.00 68 1021.1
20260905235503 78 239 2.6 3.5 0.00 0.00 0.00 69 1021.0
20260905235003 79 252 2.6 4.3 0.00 0.00 0.00 69 1021.3
20260905234504 79 246 3.5 4.3 0.00 0.00 0.00 70 1021.4
20260905234213 79 238 3.5 4.3 0.00 0.00 0.00 70 1021.0
20260905233503 79 209 3.5 4.3 0.00 0.00 0.00 70 1021.0
20260905233003 79 216 3.5 4.3 0.00 0.00 0.00 70 1021.2
20260905232717 79 239 2.6 4.3 0.00 0.00 0.00 70 1021.2
20260905232004 79 272 2.6 4.3 0.00 0.00 0.00 71 1021.3
20260905231713 79 287 2.6 4.3 0.00 0.00 0.00 71 1021.3
20260905231003 79 275 3.5 5.2 0.00 0.00 0.00 71 1020.9
20260905230504 79 243 3.5 5.2 0.00 0.00 0.00 70 1021.2
20260905230003 79 205 2.6 3.5 0.00 0.00 0.00 70 1021.2
20260905225503 79 217 2.6 3.5 0.00 0.00 0.00 70 1021.3
20260905225003 79 236 2.6 3.5 0.00 0.00 0.00 70 1021.1
20260905224503 79 234 2.6 3.5 0.00 0.00 0.00 70 1021.4
20260905224214 79 251 2.6 3.5 0.00 0.00 0.00 70 1021.2
20260905223504 79 296 1.7 3.5 0.00 0.00 0.00 70 1021.5
20260905223004 79 310 1.7 1.7 0.00 0.00 0.00 71 1021.7
20260905222504 79 279 1.7 2.6 0.00 0.00 0.00 70 1021.3
20260905222003 80 260 0.9 2.6 0.00 0.00 0.00 70 1021.5
20260905221504 80 183 0.9 3.5 0.00 0.00 0.00 70 1021.6
20260905221217 80 181 1.7 3.5 0.00 0.00 0.00 70 1021.3
20260905220715 80 185 3.5 3.5 0.00 0.00 0.00 70 1021.3
20260905220005 80 212 3.5 4.3 0.00 0.00 0.00 70 1021.3
20260905215504 80 223 3.5 4.3 0.00 0.00 0.00 66 1021.5
20260905215003 80 229 3.5 4.3 0.00 0.00 0.00 66 1021.3
20260905214717 80 245 3.5 4.3 0.00 0.00 0.00 70 1021.2
20260905214215 80 244 3.5 4.3 0.00 0.00 0.00 70 1021.1
20260905213504 80 261 2.6 3.5 0.00 0.00 0.00 67 1021.6
20260905213003 80 250 2.6 4.3 0.00 0.00 0.00 71 1021.3
20260905212503 80 240 3.5 4.3 0.00 0.00 0.00 68 1021.5
20260905212004 80 257 2.6 4.3 0.00 0.00 0.00 69 1021.5
20260905211504 80 247 2.6 3.5 0.00 0.00 0.00 70 1021.4
20260905211003 80 229 3.5 4.3 0.00 0.00 0.00 70 1021.3
20260905210716 80 237 2.6 4.3 0.00 0.00 0.00 70 1021.4
20260905210004 80 216 3.5 5.2 0.00 0.00 0.00 69 1021.4
20260905205503 80 216 3.5 5.2 0.00 0.00 0.00 69 1021.6
20260905205003 80 245 3.5 4.3 0.00 0.00 0.00 68 1021.1
20260905204503 81 261 2.6 3.5 0.00 0.00 0.00 68 1021.6
20260905204004 81 228 2.6 3.5 0.00 0.00 0.00 68 1021.2
20260905203506 81 232 2.6 3.5 0.00 0.00 0.00 69 1021.4
20260905203004 81 245 2.6 3.5 0.00 0.00 0.00 69 1021.6
20260905202506 81 272 2.6 3.5 0.00 0.00 0.00 69 1021.6
20260905202003 81 267 2.6 2.6 0.00 0.00 0.00 69 1021.7
20260905201504 81 259 1.7 2.6 0.00 0.00 0.00 69 1021.6
20260905201003 81 279 1.7 1.7 0.00 0.00 0.00 69 1021.6
20260905200503 81 273 1.7 1.7 0.00 0.00 0.00 68 1021.7
20260905200003 81 300 0.9 2.6 0.00 0.00 0.00 68 1021.7
20260905195504 81 293 1.7 2.6 0.00 0.00 0.00 68 1021.6
20260905195004 81 270 1.7 2.6 0.00 0.00 0.00 68 1021.5
20260905194504 81 271 1.7 3.5 0.00 0.00 0.00 67 1021.8
20260905194004 82 268 0.9 3.5 0.00 0.00 0.00 67 1021.7
20260905193503 82 246 0.9 3.5 0.00 0.00 0.00 67 1021.7
20260905193003 82 0 0.0 0.0 0.00 0.00 0.00 67 1021.6
20260905192504 82 360 0.9 3.5 0.00 0.00 0.00 67 1021.6
20260905192004 82 312 1.7 3.5 0.00 0.00 0.00 67 1021.7
20260905191504 82 237 0.9 2.6 0.00 0.00 0.00 67 1021.7
20260905191006 82 282 0.9 1.7 0.00 0.00 0.00 67 1021.5
20260905190717 82 315 0.9 1.7 0.00 0.00 0.00 67 1021.6
20260905190215 82 315 0.9 1.7 0.00 0.00 0.00 66 1021.3
20260905185503 82 301 1.7 2.6 0.00 0.00 0.00 65 1021.2
20260905185003 82 311 2.6 2.6 0.00 0.00 0.00 65 1021.1
20260905184504 82 330 1.7 2.6 0.00 0.00 0.00 65 1021.2
20260905184003 82 328 1.7 2.6 0.00 0.00 0.00 65 1021.4
20260905183503 82 321 2.6 2.6 0.00 0.00 0.00 65 1021.3
20260905183003 82 314 1.7 2.6 0.00 0.00 0.00 64 1021.3
20260905182503 82 315 1.7 3.5 0.00 0.00 0.00 64 1021.1
20260905182003 82 305 2.6 4.3 0.00 0.00 0.00 64 1021.2
20260905181503 82 305 2.6 5.2 0.00 0.00 0.00 64 1021.1
20260905181214 82 310 2.6 5.2 0.00 0.00 0.00 63 1021.1
20260905180504 82 312 3.5 4.3 0.00 0.00 0.00 63 1021.0
20260905180003 82 305 3.5 4.3 0.00 0.00 0.00 63 1020.9
20260905175503 82 316 4.3 5.2 0.00 0.00 0.00 63 1021.0
20260905175004 82 330 5.2 6.1 0.00 0.00 0.00 63 1020.9
20260905174503 82 331 5.2 6.1 0.00 0.00 0.00 63 1021.1
20260905174004 83 324 5.2 6.1 0.00 0.00 0.00 62 1020.9
20260905173503 83 311 3.5 4.3 0.00 0.00 0.00 62 1021.1
20260905173005 83 310 3.5 6.1 0.00 0.00 0.00 62 1020.8
20260905172503 83 319 5.2 6.1 0.00 0.00 0.00 62 1020.9
20260905172003 83 321 6.1 6.1 0.00 0.00 0.00 61 1021.1
20260905171504 83 319 6.1 7.8 0.00 0.00 0.00 61 1021.0
20260905171215 83 313 6.1 7.8 0.00 0.00 0.00 61 1020.8
20260905170504 84 320 5.2 7.0 0.00 0.00 0.00 60 1020.8
20260905170003 84 330 6.1 7.0 0.00 0.00 0.00 60 1020.8
20260905165503 84 332 6.1 7.0 0.00 0.00 0.00 60 1020.7
20260905165004 85 327 7.0 8.7 0.00 0.00 0.00 58 1020.8
20260905164504 85 327 7.0 8.7 0.00 0.00 0.00 54 1020.8
20260905164003 85 334 6.1 7.0 0.00 0.00 0.00 54 1021.0
20260905163503 85 324 6.1 7.0 0.00 0.00 0.00 55 1020.8
20260905163004 85 325 6.1 7.8 0.00 0.00 0.00 54 1020.7
20260905162503 86 344 4.3 7.8 0.00 0.00 0.00 55 1020.9
20260905162003 86 351 3.5 6.1 0.00 0.00 0.00 53 1020.9
20260905161503 86 340 3.5 6.1 0.00 0.00 0.00 54 1020.6
20260905161003 86 4 4.3 7.0 0.00 0.00 0.00 55 1020.6
20260905160506 85 346 7.0 8.7 0.00 0.00 0.00 55 1020.9
20260905160003 85 330 7.8 8.7 0.00 0.00 0.00 57 1020.9
20260905155504 85 331 7.8 9.6 0.00 0.00 0.00 57 1020.6
20260905155004 85 333 7.8 9.6 0.00 0.00 0.00 55 1020.9
20260905154715 85 335 7.8 9.6 0.00 0.00 0.00 56 1021.1
20260905154004 86 336 7.0 9.6 0.00 0.00 0.00 55 1020.7
20260905153716 86 328 6.1 8.7 0.00 0.00 0.00 55 1021.0
20260905153004 86 326 7.0 8.7 0.00 0.00 0.00 52 1021.1
20260905152504 86 346 7.0 8.7 0.00 0.00 0.00 52 1020.9
20260905152004 85 346 6.1 8.7 0.00 0.00 0.00 53 1021.0
20260905151503 86 330 6.1 11.3 0.00 0.00 0.00 55 1021.1
20260905151004 85 314 7.8 11.3 0.00 0.00 0.00 53 1021.0
20260905150714 85 324 8.7 11.3 0.00 0.00 0.00 53 1020.8
20260905150217 86 336 7.8 8.7 0.00 0.00 0.00 54 1021.0
20260905145503 85 323 8.7 11.3 0.00 0.00 0.00 55 1021.1
20260905145213 86 314 9.6 13.0 0.00 0.00 0.00 55 1020.8
20260905144503 86 338 9.6 13.0 0.00 0.00 0.00 57 1021.0
20260905144004 86 333 9.6 13.0 0.00 0.00 0.00 58 1020.9
20260905143503 86 322 8.7 13.0 0.00 0.00 0.00 57 1020.8
20260905143004 86 312 8.7 11.3 0.00 0.00 0.00 57 1020.9
20260905142713 86 316 7.8 11.3 0.00 0.00 0.00 56 1020.9
20260905142003 86 343 7.8 11.3 0.00 0.00 0.00 56 1021.1
20260905141503 85 344 10.4 13.9 0.00 0.00 0.00 58 1020.9
20260905141004 85 329 11.3 13.9 0.00 0.00 0.00 60 1021.0
20260905140715 86 319 11.3 13.9 0.00 0.00 0.00 60 1021.0
20260905140213 85 310 12.2 16.5 0.00 0.00 0.00 60 1021.0
20260905135716 85 322 11.3 16.5 0.00 0.00 0.00 60 1021.0
20260905135003 86 320 11.3 13.9 0.00 0.00 0.00 58 1021.0
20260905134504 85 319 11.3 13.9 0.00 0.00 0.00 57 1021.2
20260905134006 86 323 10.4 13.9 0.00 0.00 0.00 56 1020.8
20260905133503 86 342 10.4 13.9 0.00 0.00 0.00 58 1020.9
20260905133003 86 358 10.4 13.9 0.00 0.00 0.00 55 1021.0
20260905132714 86 343 10.4 13.9 0.00 0.00 0.00 56 1021.2
20260905132003 87 316 10.4 13.9 0.00 0.00 0.00 57 1021.1
20260905131504 86 322 11.3 13.9 0.00 0.00 0.00 58 1021.1
20260905131003 86 328 10.4 13.9 0.00 0.00 0.00 55 1020.8
20260905130503 86 325 10.4 13.0 0.00 0.00 0.00 59 1021.0
20260905130004 86 324 11.3 13.9 0.00 0.00 0.00 56 1021.2
20260905125503 86 313 11.3 13.9 0.00 0.00 0.00 55 1021.1
20260905125003 87 317 8.7 13.0 0.00 0.00 0.00 52 1021.1
20260905124503 88 345 7.8 10.4 0.00 0.00 0.00 48 1021.0
20260905124215 88 354 7.8 10.4 0.00 0.00 0.00 47 1021.1
20260905123713 89 340 7.0 10.4 0.00 0.00 0.00 41 1021.0
20260905123003 89 340 5.2 9.6 0.00 0.00 0.00 42 1021.0
20260905122714 89 2 4.3 6.1 0.00 0.00 0.00 44 1021.0
20260905122004 89 20 5.2 7.0 0.00 0.00 0.00 43 1021.2
20260905121505 89 340 7.0 8.7 0.00 0.00 0.00 48 1021.2
20260905121003 89 321 8.7 8.7 0.00 0.00 0.00 48 1021.0
20260905120504 88 330 7.8 8.7 0.00 0.00 0.00 48 1021.0
20260905120004 88 35 6.1 8.7 0.00 0.00 0.00 48 1020.9
20260905115503 88 50 7.0 8.7 0.00 0.00 0.00 50 1021.2
20260905115004 87 66 8.7 10.4 0.00 0.00 0.00 52 1021.1
20260905114503 87 66 7.8 10.4 0.00 0.00 0.00 52 1021.1
20260905114007 88 76 7.8 8.7 0.00 0.00 0.00 51 1021.0